AB4KN Weather Reports


Display with metric or nautical units.
time (UTC)temp
F
wind
direction
speed
MPH
gust
MPH
rain 1hr
in
rain 24hr
in
rain mn
in
humidity
%
barometer
mb
20260831050803 77 267 0.0 0.0 0.00 0.00 0.00 83 1025.0
20260831050302 77 267 0.0 0.0 0.00 0.00 0.00 83 1024.8
20260831045757 77 267 0.0 0.0 0.00 0.00 0.00 83 1025.1
20260831045256 77 266 0.0 0.0 0.00 0.00 0.00 82 1025.0
20260831044752 77 266 0.0 0.0 0.00 0.00 0.00 82 1025.0
20260831044246 77 267 0.0 0.0 0.00 0.00 0.00 83 1025.1
20260831043742 77 266 0.0 0.0 0.00 0.00 0.00 83 1025.0
20260831043237 77 266 0.0 0.0 0.00 0.00 0.00 82 1024.9
20260831042736 77 266 0.0 0.0 0.00 0.00 0.00 82 1024.9
20260831042231 77 266 0.0 0.0 0.00 0.00 0.00 82 1024.9
20260831041726 77 266 0.0 0.0 0.00 0.00 0.00 82 1025.0
20260831041226 77 266 0.0 0.0 0.00 0.00 0.00 82 1025.2
20260831040721 77 266 0.0 0.0 0.00 0.00 0.00 82 1025.2
20260831040220 77 266 0.0 0.0 0.00 0.00 0.00 82 1025.2
20260831035719 77 266 0.0 0.0 0.00 0.00 0.00 82 1025.1
20260831035213 77 266 0.0 0.0 0.00 0.00 0.00 81 1025.0
20260831034712 78 266 0.0 0.0 0.00 0.00 0.00 82 1025.1
20260831034208 78 266 0.0 0.0 0.00 0.00 0.00 81 1025.2
20260831033703 78 266 0.0 0.0 0.00 0.00 0.00 81 1025.2
20260831033203 78 266 0.0 0.0 0.00 0.00 0.00 81 1025.2
20260831032658 78 266 0.0 0.0 0.00 0.00 0.00 80 1025.3
20260831032153 78 266 0.0 0.0 0.00 0.00 0.00 80 1025.3
20260831031648 78 266 0.0 0.0 0.00 0.00 0.00 80 1025.2
20260831031147 78 266 0.0 0.0 0.00 0.00 0.00 80 1025.3
20260831030646 79 266 0.0 0.0 0.00 0.00 0.00 79 1025.3
20260831030146 79 266 0.0 0.0 0.00 0.00 0.00 78 1025.3
20260831025644 79 266 0.0 0.0 0.00 0.00 0.00 78 1025.3
20260831025139 79 266 0.0 0.0 0.00 0.00 0.00 78 1025.3
20260831024635 79 266 0.0 0.0 0.00 0.00 0.00 77 1025.4
20260831024134 79 266 0.0 0.0 0.00 0.00 0.00 77 1025.3
20260831023632 79 266 0.0 0.0 0.00 0.00 0.00 77 1025.2
20260831023132 79 266 0.0 0.0 0.00 0.00 0.00 77 1025.5
20260831022627 80 266 0.0 0.0 0.00 0.00 0.00 77 1025.3
20260831022122 80 266 0.0 0.0 0.00 0.00 0.00 76 1025.4
20260831021620 80 266 0.0 0.0 0.00 0.00 0.00 76 1025.3
20260831021116 80 266 0.0 0.0 0.00 0.00 0.00 75 1025.2
20260831020612 80 265 0.0 0.0 0.00 0.00 0.00 75 1025.3
20260831020107 80 265 0.0 0.0 0.00 0.00 0.00 75 1025.2
20260831015603 80 265 0.0 0.0 0.00 0.00 0.00 74 1025.3
20260831015057 81 264 0.0 0.0 0.00 0.00 0.00 73 1025.0
20260831014552 81 264 0.0 0.0 0.00 0.00 0.00 72 1025.0
20260831014047 82 264 0.0 0.0 0.00 0.00 0.00 71 1025.0
20260831013543 82 264 0.0 0.0 0.00 0.00 0.00 70 1025.0
20260831013037 82 264 0.0 0.0 0.00 0.00 0.00 70 1024.9
20260831012532 81 263 0.0 0.0 0.00 0.00 0.00 71 1024.8
20260831012027 81 276 0.0 0.0 0.00 0.00 0.00 71 1025.0
20260831011527 81 276 0.0 0.0 0.00 0.00 0.00 71 1024.8
20260831011022 82 276 0.0 0.0 0.00 0.00 0.00 70 1024.7
20260831010523 82 276 0.0 0.0 0.00 0.00 0.00 70 1024.5
20260831010019 82 276 0.0 0.0 0.00 0.00 0.00 70 1024.8
20260831005520 82 276 0.0 0.0 0.00 0.00 0.00 69 1024.5
20260831005019 82 276 0.0 0.0 0.00 0.00 0.00 69 1024.5
20260831004515 82 276 0.0 0.0 0.00 0.00 0.00 68 1024.4
20260831004010 82 276 0.0 0.0 0.00 0.00 0.00 68 1024.5
20260831003507 82 276 0.0 0.0 0.00 0.00 0.00 68 1024.3
20260831003001 83 276 0.0 0.0 0.00 0.00 0.00 67 1024.4
20260831002500 83 276 0.0 0.0 0.00 0.00 0.00 67 1024.5
20260831001955 84 276 0.0 0.0 0.00 0.00 0.00 66 1024.3
20260831001450 84 276 0.0 0.0 0.00 0.00 0.00 65 1024.7
20260831000948 84 276 0.0 0.0 0.00 0.00 0.00 65 1024.4
20260831000443 84 276 0.0 0.0 0.00 0.00 0.00 64 1024.2
20260830235941 85 277 0.0 0.0 0.00 0.00 0.00 63 1024.1
20260830235436 85 277 0.0 0.0 0.00 0.00 0.00 62 1024.2
20260830234932 85 277 0.0 0.0 0.00 0.00 0.00 61 1024.2
20260830234427 86 278 0.0 0.0 0.00 0.00 0.00 61 1023.9
20260830233923 86 277 0.0 0.0 0.00 0.00 0.00 60 1024.2
20260830233418 86 289 0.0 0.0 0.00 0.00 0.00 60 1024.0
20260830232913 87 289 0.0 0.0 0.00 0.00 0.00 60 1023.9
20260830232409 87 279 0.0 0.0 0.00 0.00 0.00 59 1024.1
20260830231906 88 235 0.0 0.0 0.00 0.00 0.00 56 1024.1
20260830231401 88 280 0.0 0.0 0.00 0.00 0.00 57 1023.9
20260830230900 88 218 0.0 0.0 0.00 0.00 0.00 55 1024.1
20260830230355 89 149 0.0 0.0 0.00 0.00 0.00 55 1023.9
20260830225854 89 185 0.0 0.0 0.00 0.00 0.00 56 1024.0
20260830225350 89 135 0.0 0.0 0.00 0.00 0.00 55 1023.9
20260830224845 89 279 0.0 0.0 0.00 0.00 0.00 56 1024.2
20260830224338 89 253 0.0 0.0 0.00 0.00 0.00 55 1023.8
20260830223836 89 266 0.0 0.0 0.00 0.00 0.00 55 1023.9
20260830223332 89 277 0.0 0.0 0.00 0.00 0.00 57 1024.1
20260830222831 90 278 0.0 0.0 0.00 0.00 0.00 55 1024.0
20260830222326 90 208 0.0 0.0 0.00 0.00 0.00 54 1024.0
20260830221821 90 256 0.0 0.0 0.00 0.00 0.00 54 1024.1
20260830221319 90 278 0.0 0.0 0.00 0.00 0.00 54 1023.9
20260830220818 89 270 0.0 0.0 0.00 0.00 0.00 54 1024.0
20260830220318 89 270 0.0 0.0 0.00 0.00 0.00 55 1023.8
20260830215816 88 220 0.0 0.0 0.00 0.00 0.00 57 1023.9
20260830215311 89 311 0.0 0.0 0.00 0.00 0.00 57 1023.9
20260830214806 90 207 0.0 0.0 0.00 0.00 0.00 54 1023.9
20260830214301 89 312 0.0 0.0 0.00 0.00 0.00 55 1024.0
20260830213800 90 300 0.0 0.0 0.00 0.00 0.00 56 1023.9
20260830213255 90 196 0.0 0.0 0.00 0.00 0.00 55 1024.0
20260830212751 89 168 1.0 2.0 0.00 0.00 0.00 57 1024.2
20260830212247 90 294 0.0 0.0 0.00 0.00 0.00 58 1024.2
20260830211746 89 273 0.0 0.0 0.00 0.00 0.00 56 1024.4
20260830211245 90 204 0.0 0.0 0.00 0.00 0.00 57 1024.3
20260830210741 90 264 0.0 0.0 0.00 0.00 0.00 57 1024.3
20260830210240 89 205 2.0 3.0 0.00 0.00 0.00 56 1024.3
20260830205738 90 311 1.0 2.0 0.00 0.00 0.00 58 1024.5
20260830205233 89 202 0.0 0.0 0.00 0.00 0.00 59 1024.2
20260830204728 89 314 0.0 0.0 0.00 0.00 0.00 58 1024.4
20260830204227 89 306 0.0 0.0 0.00 0.00 0.00 59 1024.4
20260830203723 88 237 0.0 0.0 0.00 0.00 0.00 61 1024.6
20260830203219 87 236 0.0 0.0 0.00 0.00 0.00 59 1024.4
20260830202718 88 298 0.0 0.0 0.00 0.00 0.00 60 1024.7
20260830202214 89 257 1.0 2.0 0.00 0.00 0.00 59 1024.5
20260830201713 90 167 3.0 5.0 0.00 0.00 0.00 57 1024.8
20260830201208 90 174 0.0 0.0 0.00 0.00 0.00 56 1024.7
20260830200704 90 114 0.0 0.0 0.00 0.00 0.00 57 1024.5
20260830200203 90 135 4.0 5.0 0.00 0.00 0.00 57 1024.7
20260830195658 89 84 0.0 2.0 0.00 0.00 0.00 59 1024.9
20260830195156 88 194 2.0 3.0 0.00 0.00 0.00 59 1025.0
20260830194656 87 239 0.0 2.0 0.00 0.00 0.00 60 1025.0
20260830194155 87 196 0.0 0.0 0.00 0.00 0.00 60 1025.1
20260830193650 87 281 0.0 0.0 0.00 0.00 0.00 59 1025.1
20260830193145 87 281 0.0 0.0 0.00 0.00 0.00 61 1025.2
20260830192640 88 264 0.0 0.0 0.00 0.00 0.00 60 1025.2
20260830192135 89 289 0.0 0.0 0.00 0.00 0.00 61 1025.0
20260830191630 89 283 0.0 0.0 0.00 0.00 0.00 59 1025.1
20260830191126 89 250 0.0 0.0 0.00 0.00 0.00 59 1025.3
20260830190622 87 250 0.0 2.0 0.00 0.00 0.00 60 1025.2
20260830190116 87 260 0.0 0.0 0.00 0.00 0.00 60 1025.4
20260830185615 87 291 0.0 0.0 0.00 0.00 0.00 60 1025.3
20260830185111 89 257 1.0 2.0 0.00 0.00 0.00 60 1025.6
20260830184609 89 293 0.0 0.0 0.00 0.00 0.00 57 1025.6
20260830184104 89 60 0.0 0.0 0.00 0.00 0.00 57 1025.7
20260830183559 89 236 0.0 0.0 0.00 0.00 0.00 57 1025.7
20260830183055 88 139 1.0 3.0 0.00 0.00 0.00 57 1025.9
20260830182550 88 180 3.0 5.0 0.00 0.00 0.00 59 1025.8
20260830182046 86 261 0.0 0.0 0.00 0.00 0.00 63 1025.8
20260830181542 86 240 0.0 0.0 0.00 0.00 0.00 66 1025.9
20260830181041 86 268 0.0 0.0 0.00 0.00 0.00 67 1026.0
20260830180541 86 327 0.0 0.0 0.00 0.00 0.00 66 1026.0
20260830180040 87 265 0.0 0.0 0.00 0.00 0.00 64 1026.1
20260830175539 87 324 0.0 0.0 0.00 0.00 0.00 63 1026.2
20260830175035 88 153 0.0 0.0 0.00 0.00 0.00 63 1026.3
20260830174530 89 301 0.0 0.0 0.00 0.00 0.00 61 1026.5
20260830174025 88 219 0.0 0.0 0.00 0.00 0.00 64 1026.5
20260830173521 88 267 0.0 0.0 0.00 0.00 0.00 63 1026.8
20260830173015 88 162 3.0 5.0 0.00 0.00 0.00 63 1026.8
20260830172513 87 301 0.0 0.0 0.00 0.00 0.00 67 1026.7
20260830172008 88 165 0.0 2.0 0.00 0.00 0.00 64 1026.8
20260830171503 88 217 0.0 0.0 0.00 0.00 0.00 63 1027.0
20260830171003 87 266 0.0 0.0 0.00 0.00 0.00 65 1027.0
20260830170458 87 159 0.0 0.0 0.00 0.00 0.00 64 1027.0
20260830165956 88 204 2.0 3.0 0.00 0.00 0.00 62 1027.2
20260830165452 88 320 0.0 0.0 0.00 0.00 0.00 65 1027.1
20260830164948 88 231 0.0 0.0 0.00 0.00 0.00 64 1027.0
20260830164443 87 299 0.0 0.0 0.00 0.00 0.00 66 1027.2
20260830163940 87 211 0.0 2.0 0.00 0.00 0.00 64 1027.1
20260830163436 87 324 0.0 2.0 0.00 0.00 0.00 65 1027.2
20260830162935 87 128 4.0 5.0 0.00 0.00 0.00 65 1027.2
20260830162432 87 208 0.0 0.0 0.00 0.00 0.00 64 1027.4
20260830161932 87 301 0.0 2.0 0.00 0.00 0.00 66 1027.6
20260830161431 86 225 0.0 0.0 0.00 0.00 0.00 67 1027.4
20260830160926 86 175 1.0 2.0 0.00 0.00 0.00 68 1027.5
20260830160423 84 106 0.0 0.0 0.00 0.00 0.00 71 1027.7
20260830155917 83 256 0.0 0.0 0.00 0.00 0.00 73 1027.5
20260830155414 84 185 0.0 0.0 0.00 0.00 0.00 72 1027.7
20260830154908 83 149 0.0 0.0 0.00 0.00 0.00 71 1027.8
20260830154404 82 281 0.0 0.0 0.00 0.00 0.00 76 1027.7
20260830153901 82 259 0.0 0.0 0.00 0.00 0.00 75 1027.7
20260830153356 82 190 0.0 0.0 0.00 0.00 0.00 75 1027.6
20260830152855 82 181 1.0 2.0 0.00 0.00 0.00 76 1027.6
20260830152350 81 256 0.0 2.0 0.00 0.00 0.00 78 1027.8
20260830151844 82 188 0.0 0.0 0.00 0.00 0.00 77 1027.8
20260830151343 82 281 0.0 0.0 0.00 0.00 0.00 78 1027.8
20260830150839 82 232 0.0 0.0 0.00 0.00 0.00 77 1027.8
20260830150338 81 286 0.0 0.0 0.00 0.00 0.00 78 1027.9
20260830145833 80 269 0.0 0.0 0.00 0.00 0.00 80 1027.8
20260830145328 80 200 0.0 0.0 0.00 0.00 0.00 79 1027.9
20260830144823 81 279 0.0 0.0 0.00 0.00 0.00 80 1027.7
20260830144319 80 275 0.0 0.0 0.00 0.00 0.00 80 1027.8
20260830143814 80 240 0.0 0.0 0.00 0.00 0.00 81 1027.9
20260830143309 80 257 0.0 0.0 0.00 0.00 0.00 82 1027.6
20260830142803 79 285 0.0 0.0 0.00 0.00 0.00 84 1027.7
20260830142258 79 284 0.0 0.0 0.00 0.00 0.00 84 1027.8
20260830141753 79 285 0.0 0.0 0.00 0.00 0.00 83 1027.9
20260830141248 78 275 0.0 0.0 0.00 0.00 0.00 83 1027.7
20260830140743 78 273 0.0 0.0 0.00 0.00 0.00 84 1027.9
20260830140238 78 159 0.0 0.0 0.00 0.00 0.00 83 1027.7
20260830135732 78 244 0.0 0.0 0.00 0.00 0.00 85 1027.6
20260830135228 77 255 0.0 0.0 0.00 0.00 0.00 85 1027.8
20260830134723 77 203 0.0 0.0 0.00 0.00 0.00 86 1027.5
20260830134218 77 209 0.0 0.0 0.00 0.00 0.00 87 1027.7
20260830133714 76 233 0.0 0.0 0.00 0.00 0.00 87 1027.6
20260830133210 76 209 0.0 0.0 0.00 0.00 0.00 87 1027.4
20260830132705 76 272 0.0 0.0 0.00 0.00 0.00 87 1027.7
20260830132201 76 267 0.0 0.0 0.00 0.00 0.00 88 1027.9
20260830131700 75 285 0.0 0.0 0.00 0.00 0.00 88 1027.6
20260830131200 75 264 0.0 0.0 0.00 0.00 0.00 88 1027.8
20260830130655 75 267 0.0 0.0 0.00 0.00 0.00 88 1027.5
20260830130155 75 234 0.0 0.0 0.00 0.00 0.00 89 1027.6
20260830125649 74 268 0.0 0.0 0.00 0.00 0.00 89 1027.7
20260830125144 74 258 0.0 0.0 0.00 0.00 0.00 89 1027.9
20260830124642 74 268 0.0 0.0 0.00 0.00 0.00 89 1027.6
20260830124137 74 248 0.0 0.0 0.00 0.00 0.00 89 1027.7
20260830123634 74 266 0.0 0.0 0.00 0.00 0.00 89 1027.6
20260830123130 73 266 0.0 0.0 0.00 0.00 0.00 89 1027.5
20260830122627 73 267 0.0 0.0 0.00 0.00 0.00 89 1027.4
20260830122122 73 260 0.0 0.0 0.00 0.00 0.00 89 1027.2
20260830121618 73 267 0.0 0.0 0.00 0.00 0.00 89 1027.3
20260830121117 73 267 0.0 0.0 0.00 0.00 0.00 89 1027.3
20260830120618 73 279 0.0 0.0 0.00 0.00 0.00 89 1027.3
20260830120114 73 279 0.0 0.0 0.00 0.00 0.00 89 1027.1
20260830115610 72 279 0.0 0.0 0.00 0.00 0.00 89 1027.0
20260830115105 72 279 0.0 0.0 0.00 0.00 0.00 89 1027.0
20260830114602 72 279 0.0 0.0 0.00 0.00 0.00 89 1026.9
20260830114101 72 279 0.0 0.0 0.00 0.00 0.00 89 1026.8
20260830113556 72 279 0.0 0.0 0.00 0.00 0.00 89 1026.9
20260830113052 72 279 0.0 0.0 0.00 0.00 0.00 89 1026.8
20260830112548 72 279 0.0 0.0 0.00 0.00 0.00 89 1026.6
20260830112044 72 279 0.0 0.0 0.00 0.00 0.00 89 1026.7
20260830111539 72 280 0.0 0.0 0.00 0.00 0.00 89 1026.5
20260830111035 72 280 0.0 0.0 0.00 0.00 0.00 89 1026.6
20260830110535 72 280 0.0 0.0 0.00 0.00 0.00 89 1026.5
20260830110030 72 280 0.0 0.0 0.00 0.00 0.00 89 1026.2
20260830105525 72 280 0.0 0.0 0.00 0.00 0.00 89 1026.3
20260830105021 72 280 0.0 0.0 0.00 0.00 0.00 89 1026.3
20260830104518 72 280 0.0 0.0 0.00 0.00 0.00 89 1026.1
20260830104014 72 280 0.0 0.0 0.00 0.00 0.00 89 1026.1
20260830103509 72 280 0.0 0.0 0.00 0.00 0.00 89 1025.7
20260830103007 73 280 0.0 0.0 0.00 0.00 0.00 89 1025.9
20260830102502 73 280 0.0 0.0 0.00 0.00 0.00 89 1026.1
20260830101958 73 280 0.0 0.0 0.00 0.00 0.00 89 1026.1
20260830101454 73 280 0.0 0.0 0.00 0.00 0.00 89 1025.7
20260830100953 73 280 0.0 0.0 0.00 0.00 0.00 89 1025.7
20260830100453 73 280 0.0 0.0 0.00 0.00 0.00 89 1025.7
20260830095951 73 280 0.0 0.0 0.00 0.00 0.00 89 1025.9
20260830095447 73 280 0.0 0.0 0.00 0.00 0.00 89 1025.5
20260830094943 73 280 0.0 0.0 0.00 0.00 0.00 89 1025.7
20260830094439 73 280 0.0 0.0 0.00 0.00 0.00 89 1025.6
20260830093934 73 280 0.0 0.0 0.00 0.00 0.00 89 1025.6
20260830093429 73 280 0.0 0.0 0.00 0.00 0.00 89 1025.5
20260830092925 73 280 0.0 0.0 0.00 0.00 0.00 89 1025.4
20260830092421 73 280 0.0 0.0 0.00 0.00 0.00 89 1025.6
20260830091917 73 280 0.0 0.0 0.00 0.00 0.00 89 1025.6
20260830091417 73 280 0.0 0.0 0.00 0.00 0.00 89 1025.5
20260830090915 73 280 0.0 0.0 0.00 0.00 0.00 89 1025.6
20260830090411 73 280 0.0 0.0 0.00 0.00 0.00 89 1025.5
20260830085906 73 280 0.0 0.0 0.00 0.00 0.00 89 1025.6
20260830085401 73 280 0.0 0.0 0.00 0.00 0.00 89 1025.5
20260830084857 73 280 0.0 0.0 0.00 0.00 0.00 89 1025.8
20260830084352 73 280 0.0 0.0 0.00 0.00 0.00 89 1025.8
20260830083847 73 280 0.0 0.0 0.00 0.00 0.00 89 1025.7
20260830083343 73 280 0.0 0.0 0.00 0.00 0.00 89 1025.8
20260830082842 73 280 0.0 0.0 0.00 0.00 0.00 88 1025.6
20260830082338 73 280 0.0 0.0 0.00 0.00 0.00 88 1025.7
20260830081833 73 280 0.0 0.0 0.00 0.00 0.00 88 1025.7
20260830081332 73 280 0.0 0.0 0.00 0.00 0.00 88 1025.5
20260830080827 73 280 0.0 0.0 0.00 0.00 0.00 88 1025.7
20260830080326 73 280 0.0 0.0 0.00 0.00 0.00 88 1025.5
20260830075822 73 280 0.0 0.0 0.00 0.00 0.00 88 1025.7
20260830075319 73 280 0.0 0.0 0.00 0.00 0.00 88 1025.8
20260830074813 73 280 0.0 0.0 0.00 0.00 0.00 88 1025.7
20260830074309 74 280 0.0 0.0 0.00 0.00 0.00 88 1025.7
20260830073804 73 280 0.0 0.0 0.00 0.00 0.00 88 1025.5
20260830073255 74 280 0.0 0.0 0.00 0.00 0.00 88 1025.9
20260830072754 74 280 0.0 0.0 0.00 0.00 0.00 88 1025.8
20260830072250 74 280 0.0 0.0 0.00 0.00 0.00 88 1025.8
20260830071744 74 280 0.0 0.0 0.00 0.00 0.00 88 1025.6
20260830071244 74 280 0.0 0.0 0.00 0.00 0.00 88 1025.5
20260830070743 74 280 0.0 0.0 0.00 0.00 0.00 88 1025.7
20260830070238 74 280 0.0 0.0 0.00 0.00 0.00 88 1025.6
20260830065737 74 280 0.0 0.0 0.00 0.00 0.00 88 1025.8
20260830065232 74 280 0.0 0.0 0.00 0.00 0.00 88 1025.7
20260830064730 74 280 0.0 0.0 0.00 0.00 0.00 88 1025.6
20260830064226 74 280 0.0 0.0 0.00 0.00 0.00 88 1025.6
20260830063720 74 280 0.0 0.0 0.00 0.00 0.00 88 1025.5
20260830063219 74 280 0.0 0.0 0.00 0.00 0.00 87 1025.6
20260830062714 75 280 0.0 0.0 0.00 0.00 0.00 87 1025.7
20260830062209 75 280 0.0 0.0 0.00 0.00 0.00 87 1025.7
20260830061708 75 280 0.0 0.0 0.00 0.00 0.00 87 1025.9
20260830061204 75 280 0.0 0.0 0.00 0.00 0.00 87 1025.9
20260830060701 75 280 0.0 0.0 0.00 0.00 0.00 87 1026.0
20260830060157 75 280 0.0 0.0 0.00 0.00 0.00 86 1026.0
20260830055652 75 280 0.0 0.0 0.00 0.00 0.00 87 1025.9
20260830055149 75 280 0.0 0.0 0.00 0.00 0.00 86 1025.9
20260830054643 75 280 0.0 0.0 0.00 0.00 0.00 86 1026.0
20260830054138 75 280 0.0 0.0 0.00 0.00 0.00 86 1026.1
20260830053634 76 280 0.0 0.0 0.00 0.00 0.00 86 1026.2
20260830053133 76 280 0.0 0.0 0.00 0.00 0.00 86 1026.1
20260830052629 76 279 0.0 0.0 0.00 0.00 0.00 86 1026.5
20260830052124 76 278 0.0 0.0 0.00 0.00 0.00 86 1026.5
20260830051618 76 279 0.0 0.0 0.00 0.00 0.00 85 1026.2